Location: Unspecified
(0.0000°N, 0.0000°E)
Time: 17:32:24
(UTC+00:00)

Envisat - Pass Details

Date: 03 April 2019
Orbit: 764 x 766 km, 98.1° (Epoch: 25 September)

Event Time Altitude Azimuth Distance (km) Brightness Sun altitude
Rises 19:15:13 0° 175° (S) 3,228 6.1 -17.9°
Reaches altitude 10° 19:17:33 10° 178° (S) 2,301 5.4 -18.5°
Maximum altitude 19:22:33 61° 258° (WSW) 866 3.5 -19.7°
Drops below altitude 10° 19:27:32 10° 338° (NNW) 2,292 5.8 -21.0°
Sets 19:29:51 0° 341° (NNW) 3,216 6.6 -21.5°
